This demonstration page uses our WeatherBlox Daily Observations layout. Learn more.

Hourly Observations for November 23, 2020

Temp ( °F °C ) Dew Point ( °F °C ) Humidity (%) Winds ( mph kmh ) Pressure ( in mb ) Visibility ( mi km ) Precip ( " mm )
12:53 am 00:53 Cloudy 39 3.9 35 1.7 86 86 W 3 6 30.27 1025 10 16.0934 0 0
1:35 am 01:35 Mostly Cloudy 35 1.7 33 0.6 93 93 Calm 30.29 1026 10 16.0934 0 0
1:53 am 01:53 Cloudy 35 1.7 33 0.6 93 93 Calm 30.27 1025 10 16.0934 0 0
2:53 am 02:53 Cloudy 36 2.2 34 1.1 93 93 Calm 30.27 1025 10 16.0934 0 0
3:45 am 03:45 Cloudy 38 3.3 36 2.2 93 93 Calm 30.3 1026 10 16.0934 0 0
3:53 am 03:53 Cloudy 38 3.3 36 2.2 93 93 WSW 3 6 30.28 1025 10 16.0934 0 0
4:16 am 04:16 Cloudy 38 3.3 36 2.2 93 93 SW 3 6 30.3 1026 10 16.0934 0 0
4:53 am 04:53 Cloudy 37 2.8 35 1.7 93 93 Calm 30.29 1026 10 16.0934 0 0
5:06 am 05:06 Cloudy 37 2.8 35 1.7 93 93 W 3 6 30.31 1026 10 16.0934 0 0
5:30 am 05:30 Cloudy 39 3.9 36 2.2 89 89 WSW 5 7 30.3 1026 10 16.0934 0 0
5:53 am 05:53 Cloudy 39 3.9 36 2.2 89 89 W 3 6 30.3 1026 10 16.0934 0 0
6:53 am 06:53 Cloudy 40 4.4 37 2.8 89 89 WSW 6 9 30.3 1026 10 16.0934 0 0
7:53 am 07:53 Cloudy 40 4.4 37 2.8 89 89 W 6 9 30.31 1026 10 16.0934 0 0
8:53 am 08:53 Mostly Cloudy 42 5.6 37 2.8 82 82 W 5 7 30.33 1027 10 16.0934 0 0
9:53 am 09:53 Cloudy 43 6.1 37 2.8 80 80 W 5 7 30.34 1028 10 16.0934 0 0
10:53 am 10:53 Cloudy 43 6.1 36 2.2 76 76 NW 8 13 30.35 1028 10 16.0934 0 0
11:53 am 11:53 Mostly Cloudy 45 7.2 35 1.7 68 68 WNW 7 11 30.35 1028 10 16.0934 0 0
12:37 pm 12:37 Partly Cloudy 47 8.3 35 1.7 63 63 Calm 30.34 1028 10 16.0934 0 0
12:53 pm 12:53 Mostly Cloudy 47 8.3 36 2.2 66 66 VRB 7 11 30.34 1027 10 16.0934 0 0
1:12 pm 13:12 Partly Cloudy 46 7.8 35 1.7 66 66 W 7 11 30.34 1028 10 16.0934 0 0
1:53 pm 13:53 Sunny 47 8.3 34 1.1 61 61 WNW 6 9 30.33 1027 10 16.0934 0 0
2:19 pm 14:19 Mostly Cloudy 47 8.3 35 1.7 63 63 NNW 3 6 30.33 1027 10 16.0934 0 0
2:50 pm 14:50 Partly Cloudy 46 8 36 2 66 66 NW 6 9 30.32 1027 10 16.0934 0 0
2:53 pm 14:53 Partly Cloudy 46 7.8 35 1.7 66 66 NW 5 7 30.32 1027 10 16.0934 0 0
3:53 pm 15:53 Sunny 45 7.2 34 1.1 66 66 NW 7 11 30.32 1027 10 16.0934 0 0
4:53 pm 16:53 Sunny 42 5.6 33 0.6 71 71 NNW 6 9 30.35 1028 10 16.0934 0 0
5:53 pm 17:53 Clear 36 2.2 31 -0.6 82 82 N 5 7 30.36 1028 10 16.0934 0 0
6:53 pm 18:53 Clear 37 2.8 32 0 82 82 Calm 30.37 1028 10 16.0934 0 0
7:53 pm 19:53 Clear 36 2.2 33 0.6 89 89 Calm 30.37 1028 10 16.0934 0 0
8:53 pm 20:53 Clear 35 1.7 33 0.6 93 93 Calm 30.37 1028 10 16.0934 0 0
9:53 pm 21:53 Clear 34 1.1 32 0 92 92 Calm 30.36 1028 10 16.0934 0 0
10:53 pm 22:53 Clear 33 0.6 31 -0.6 92 92 Calm 30.35 1028 9 14.48406 0 0
11:53 pm 23:53 Clear 31 -0.6 29 -1.7 92 92 Calm 30.36 1028 9 14.48406 0 0

Powered by AerisWeather